FW5857 Weather Reports


time (UTC)temp
C
wind
direction
speed
KPH
gust
KPH
rain 1hr
cm
rain 24hr
cm
rain mn
cm
humidity
%
barometer
mb
20260504081518 9 330 1.6 4.8 0.00 0.00 0.00 77 1003.8
20260504081018 9 330 0.0 3.2 0.00 0.00 0.00 76 1003.8
20260504080518 9 213 1.6 3.2 0.00 0.00 0.00 78 1003.9
20260504050541 13 202 6.4 14.5 0.00 0.00 0.00 63 1005.5
20260504050020 13 212 8.0 17.7 0.00 0.00 0.00 63 1005.6
20260504045539 13 206 6.4 14.5 0.00 0.00 0.00 63 1005.6
20260504045019 13 187 8.0 16.1 0.00 0.00 0.00 63 1005.5
20260504044519 13 180 6.4 14.5 0.00 0.00 0.00 63 1005.5
20260504044018 13 195 6.4 14.5 0.00 0.00 0.00 62 1005.5
20260504043519 13 198 6.4 12.9 0.00 0.00 0.00 62 1005.5
20260504043019 14 207 6.4 12.9 0.00 0.00 0.00 62 1005.6
20260504042518 14 206 3.2 9.7 0.00 0.00 0.00 61 1005.6
20260504042017 14 207 4.8 14.5 0.00 0.00 0.00 61 1005.4
20260504041536 15 196 3.2 12.9 0.00 0.00 0.00 60 1005.4
20260504041016 15 195 6.4 14.5 0.00 0.00 0.00 59 1005.5
20260504040536 15 193 8.0 22.5 0.00 0.00 0.00 59 1005.4
20260504040016 15 191 8.0 16.1 0.00 0.00 0.00 59 1005.5
20260504035523 15 199 9.7 22.5 0.00 0.00 0.00 58 1005.4
20260504035023 15 189 9.7 19.3 0.00 0.00 0.00 58 1005.5
20260504034523 15 204 6.4 20.9 0.00 0.00 0.00 58 1005.6
20260504034022 15 193 8.0 14.5 0.00 0.00 0.00 58 1005.6
20260504033522 15 186 6.4 14.5 0.00 0.00 0.00 57 1005.6
20260504033022 15 186 8.0 20.9 0.00 0.00 0.00 57 1005.6
20260504032521 15 186 9.7 19.3 0.00 0.00 0.00 57 1005.6
20260504032021 15 187 8.0 17.7 0.00 0.00 0.00 57 1005.7
20260504031520 15 189 8.0 19.3 0.00 0.00 0.00 57 1005.7
20260504031020 15 185 6.4 17.7 0.00 0.00 0.00 56 1005.8
20260504030520 15 178 6.4 9.7 0.00 0.00 0.00 56 1005.9
20260504030020 16 184 6.4 16.1 0.00 0.00 0.00 56 1005.8
20260504025518 16 177 6.4 17.7 0.00 0.00 0.00 55 1005.9
20260504025018 16 188 8.0 17.7 0.00 0.00 0.00 55 1005.9
20260504024518 16 184 8.0 14.5 0.00 0.00 0.00 55 1005.9
20260504024037 16 185 6.4 14.5 0.00 0.00 0.00 55 1005.8
20260504023517 16 184 4.8 12.9 0.00 0.00 0.00 55 1005.8
20260504023017 16 191 4.8 14.5 0.00 0.00 0.00 54 1005.9
20260504022517 16 185 4.8 9.7 0.00 0.00 0.00 54 1005.9
20260504022016 16 182 4.8 17.7 0.00 0.00 0.00 53 1005.7
20260504021516 16 195 6.4 14.5 0.00 0.00 0.00 52 1005.7
20260504021016 16 188 6.4 11.3 0.00 0.00 0.00 52 1005.6
20260504020523 16 182 4.8 11.3 0.00 0.00 0.00 51 1005.6
20260504020024 16 183 6.4 11.3 0.00 0.00 0.00 51 1005.6
20260504015542 16 182 4.8 12.9 0.00 0.00 0.00 50 1005.7
20260504015022 17 192 6.4 11.3 0.00 0.00 0.00 50 1005.6
20260504014522 17 174 4.8 11.3 0.00 0.00 0.00 50 1005.6
20260504014041 17 185 4.8 8.0 0.00 0.00 0.00 49 1005.6
20260504013521 17 191 3.2 9.7 0.00 0.00 0.00 49 1005.5
20260504013021 17 192 3.2 8.0 0.00 0.00 0.00 48 1005.5
20260504012520 17 189 4.8 8.0 0.00 0.00 0.00 48 1005.4
20260504012020 17 182 3.2 8.0 0.00 0.00 0.00 48 1005.3
20260504011519 17 192 3.2 8.0 0.00 0.00 0.00 47 1005.3
20260504011059 17 201 3.2 9.7 0.00 0.00 0.00 47 1005.2
20260504010519 18 195 4.8 11.3 0.00 0.00 0.00 46 1005.2
20260504010018 18 198 3.2 11.3 0.00 0.00 0.00 46 1005.1
20260504005518 18 195 4.8 11.3 0.00 0.00 0.00 45 1005.1
20260504005017 18 188 6.4 14.5 0.00 0.00 0.00 45 1005.1
20260504004517 18 198 4.8 12.9 0.00 0.00 0.00 45 1005.1
20260504004017 18 201 6.4 12.9 0.00 0.00 0.00 44 1005.2
20260504003516 19 199 6.4 14.5 0.00 0.00 0.00 44 1005.2
20260504003036 19 196 4.8 9.7 0.00 0.00 0.00 43 1005.2
20260504002523 19 209 4.8 8.0 0.00 0.00 0.00 43 1005.1
20260504002023 20 219 4.8 11.3 0.00 0.00 0.00 42 1005.1
20260504001523 20 223 6.4 16.1 0.00 0.00 0.00 42 1005.1
20260504001022 20 228 8.0 22.5 0.00 0.00 0.00 42 1005.1
20260504000522 20 224 6.4 22.5 0.00 0.00 0.00 41 1005.2
20260504000022 20 229 8.0 25.7 0.00 0.00 0.00 41 1005.3
20260503235520 20 218 8.0 25.7 0.00 0.00 0.00 41 1005.2
20260503235020 20 236 8.0 19.3 0.00 0.00 0.00 40 1005.3
20260503234519 20 225 6.4 27.4 0.00 0.00 0.00 40 1005.3
20260503234019 20 225 9.7 20.9 0.00 0.00 0.00 40 1005.2
20260503233519 20 219 9.7 24.1 0.00 0.00 0.00 40 1005.3
20260503233039 20 222 6.4 20.9 0.00 0.00 0.00 40 1005.3
20260503232519 20 232 8.0 19.3 0.00 0.00 0.00 39 1005.3
20260503232018 20 226 8.0 17.7 0.00 0.00 0.00 39 1005.4
20260503231517 20 242 6.4 16.1 0.00 0.00 0.00 39 1005.5
20260503231017 20 245 8.0 20.9 0.00 0.00 0.00 39 1005.5
20260503230517 20 255 8.0 20.9 0.00 0.00 0.00 39 1005.6
20260503230016 20 235 9.7 29.0 0.00 0.00 0.00 38 1005.6
20260503225516 20 234 9.7 27.4 0.00 0.00 0.00 38 1005.6
20260503225044 21 240 8.0 24.1 0.00 0.00 0.00 38 1005.6
20260503224523 21 241 4.8 16.1 0.00 0.00 0.00 38 1005.5
20260503224043 20 241 8.0 24.1 0.00 0.00 0.00 38 1005.6
20260503223522 20 237 12.9 30.6 0.00 0.00 0.00 38 1005.7
20260503223022 20 231 12.9 32.2 0.00 0.00 0.00 38 1005.7
20260503222521 20 225 12.9 35.4 0.00 0.00 0.00 39 1005.6
20260503222020 20 228 14.5 32.2 0.00 0.00 0.00 39 1005.5
20260503221520 20 231 12.9 33.8 0.00 0.00 0.00 39 1005.6
20260503221020 20 207 14.5 33.8 0.00 0.00 0.00 40 1005.6
20260503220540 20 198 11.3 25.7 0.00 0.00 0.00 40 1005.6
20260503220019 19 193 11.3 30.6 0.00 0.00 0.00 41 1005.6
20260503215518 19 194 12.9 38.6 0.00 0.00 0.00 40 1005.7
20260503215018 19 203 12.9 30.6 0.00 0.00 0.00 40 1005.8
20260503214518 19 189 12.9 29.0 0.00 0.00 0.00 40 1005.8
20260503214037 19 205 12.9 29.0 0.00 0.00 0.00 40 1005.8
20260503213517 19 205 16.1 37.0 0.00 0.00 0.00 40 1006.0
20260503213037 19 193 12.9 30.6 0.00 0.00 0.00 40 1006.1
20260503212515 19 209 14.5 32.2 0.00 0.00 0.00 41 1006.2
20260503212023 19 199 12.9 33.8 0.00 0.00 0.00 41 1006.2
20260503211523 18 204 11.3 35.4 0.00 0.00 0.00 41 1006.2
20260503211022 18 189 14.5 37.0 0.00 0.00 0.00 40 1006.4
20260503210522 18 194 11.3 37.0 0.00 0.00 0.00 41 1006.5
20260503210022 18 205 16.1 33.8 0.00 0.00 0.00 41 1006.6
20260503205521 18 205 12.9 29.0 0.00 0.00 0.00 42 1006.6
20260503205021 18 204 16.1 40.2 0.00 0.00 0.00 40 1006.8
20260503204521 18 196 16.1 38.6 0.00 0.00 0.00 41 1006.9
20260503204021 18 205 12.9 37.0 0.00 0.00 0.00 40 1007.1
20260503203520 18 198 14.5 35.4 0.00 0.00 0.00 40 1007.2
20260503203019 18 210 16.1 35.4 0.00 0.00 0.00 40 1007.2
20260503202518 17 199 14.5 41.8 0.00 0.00 0.00 41 1007.3
20260503202018 17 199 14.5 35.4 0.00 0.00 0.00 41 1007.4
20260503201538 17 204 16.1 37.0 0.00 0.00 0.00 41 1007.5
20260503201017 17 198 17.7 35.4 0.00 0.00 0.00 41 1007.6
20260503200517 18 198 19.3 41.8 0.00 0.00 0.00 40 1007.7
20260503200017 18 199 16.1 35.4 0.00 0.00 0.00 44 1007.7
20260503195516 17 211 16.1 38.6 0.00 0.00 0.00 46 1007.9
20260503195016 17 194 16.1 43.5 0.00 0.00 0.00 47 1007.9
20260503194536 17 202 12.9 37.0 0.00 0.00 0.00 48 1007.9
20260503194016 17 195 20.9 51.5 0.00 0.00 0.00 48 1008.1
20260503193523 16 189 16.1 35.4 0.00 0.00 0.00 49 1008.2
20260503193023 16 185 17.7 41.8 0.00 0.00 0.00 51 1008.3
20260503192522 16 190 16.1 38.6 0.00 0.00 0.00 50 1008.5
20260503192022 16 190 17.7 43.5 0.00 0.00 0.00 50 1008.6
20260503191522 16 175 19.3 41.8 0.00 0.00 0.00 50 1008.7
20260503191021 16 187 19.3 38.6 0.00 0.00 0.00 50 1008.5
20260503190521 15 183 19.3 41.8 0.00 0.00 0.00 50 1008.6
20260503190021 15 192 16.1 37.0 0.00 0.00 0.00 50 1008.5
20260503185520 15 182 19.3 41.8 0.00 0.00 0.00 50 1008.4
20260503185040 15 176 16.1 45.1 0.00 0.00 0.00 50 1008.6
20260503184519 15 181 17.7 43.5 0.00 0.00 0.00 49 1008.7
20260503184019 15 190 16.1 38.6 0.00 0.00 0.00 49 1008.8
20260503183519 15 185 17.7 38.6 0.00 0.00 0.00 49 1008.8
20260503183019 15 174 19.3 41.8 0.00 0.00 0.00 48 1008.7
20260503182518 15 175 17.7 41.8 0.00 0.00 0.00 49 1008.9
20260503182058 15 174 19.3 41.8 0.00 0.00 0.00 49 1009.1
20260503181557 15 179 14.5 37.0 0.00 0.00 0.00 50 1009.2
20260503181017 15 187 16.1 43.5 0.00 0.00 0.00 49 1009.3
20260503180517 15 176 16.1 35.4 0.00 0.00 0.00 51 1009.4
20260503180016 14 186 14.5 32.2 0.00 0.00 0.00 52 1009.5
20260503175516 13 178 17.7 33.8 0.00 0.00 0.00 53 1009.7
20260503175015 13 172 17.7 37.0 0.00 0.00 0.00 53 1009.7
20260503174523 13 176 16.1 37.0 0.00 0.00 0.00 53 1009.7
20260503174023 13 173 14.5 33.8 0.00 0.00 0.00 53 1010.0
20260503173543 13 181 17.7 40.2 0.00 0.00 0.00 52 1010.1
20260503173043 13 177 14.5 38.6 0.00 0.00 0.00 54 1010.2
20260503172521 13 175 16.1 45.1 0.00 0.00 0.00 56 1010.4
20260503172041 13 180 17.7 41.8 0.00 0.00 0.00 56 1010.5
20260503171521 13 177 17.7 41.8 0.00 0.00 0.00 57 1010.6
20260503171020 13 176 16.1 40.2 0.00 0.00 0.00 59 1010.8
20260503170520 13 178 17.7 40.2 0.00 0.00 0.00 59 1011.0
20260503150518 12 207 17.7 43.5 0.00 0.00 0.00 56 1013.0
20260503131019 9 208 8.0 19.3 0.00 0.00 0.00 60 1013.7
20260503130519 9 188 11.3 27.4 0.00 0.00 0.00 60 1013.6
20260503110518 7 180 8.0 17.7 0.00 0.00 0.00 60 1013.2